• Join FlightAware (Why Join?)
  • Login
  • US Flag 
11:04AM EST


 

Airport Tracker/Info


-or-


 

Live Flight TrackerFlight Track Log ✈ EJA922 ✈ 31-Oct-2013 ✈ KTEB - KIAD

Flight Track Log - Related Links

Times and Time Zones

All times are in EDT time to prevent confusion due to time zone crossing. See the EJA922 flight status page for this flight to view local times or setup timezone preferences in your user account.

Time Position Orientation Groundspeed Altitude Reporting Facility
EDT Latitude Longitude Course Direction KTS MPH feet Rate Location/Type
08:36AM 40.8167 -74.2000 255° West 206 237 3,100  Level New York TRACON
08:37AM 40.8167 -74.2667 270° West 230 265 6,600 3,333 Climbing New York TRACON
08:38AM 40.8167 -74.3667 270° West 265 305 10,100 2,441 Climbing New York TRACON
08:40AM 40.7750 -74.5883 256° West 330 380 13,800 2,082 Climbing New York Center
08:41AM 40.7522 -74.7047 256° West 364 419 16,000 2,050 Climbing New York Center
08:42AM 40.7267 -74.8456 257° West 375 432 17,900 992 Climbing New York Center
08:43AM 40.7008 -74.9892 257° West 380 437 18,000 600 Climbing New York Center
08:44AM 40.6672 -75.1131 250° West 394 453 19,100 1,000 Climbing New York Center
08:45AM 40.6081 -75.2433 239° Southwest 400 460 20,000 450 Climbing New York Center
08:46AM 40.5489 -75.3758 240° Southwest 417 480 20,000  Level New York Center
08:47AM 40.4872 -75.5108 239° Southwest 430 495 20,000  Level New York Center
08:48AM 40.4256 -75.6431 239° Southwest 430 495 20,000  Level New York Center
08:49AM 40.3658 -75.7750 239° Southwest 430 495 20,000  Level New York Center
08:50AM 40.2972 -75.9197 238° Southwest 430 495 20,000  Level New York Center
08:51AM 40.2350 -76.0511 238° Southwest 430 495 20,000 -595 Level New York Center
08:52AM 40.1708 -76.1794 237° Southwest 430 495 18,800 -1,350 Descending New York Center
08:53AM 40.1108 -76.3078 239° Southwest 425 489 17,300 -1,613 Descending New York Center
08:54AM 40.0547 -76.4308 239° Southwest 414 476 15,600 -1,150 Descending New York Center
08:55AM 40.0058 -76.5406 240° Southwest 400 460 15,000 -300 Descending New York Center
08:56AM 39.9475 -76.6658 239° Southwest 400 460 15,000  Level New York Center
08:58AM 39.8167 -76.9333 238° Southwest 391 450 15,000 -30 Level Potomac TRACON
08:59AM 39.7667 -77.0500 241° Southwest 389 448 14,900 -992 Descending Potomac TRACON
09:00AM 39.7167 -77.1667 241° Southwest 372 428 13,000 -1,884 Descending Potomac TRACON
09:01AM 39.6667 -77.2667 237° Southwest 317 365 11,100 -1,632 Descending Potomac TRACON
09:02AM 39.6167 -77.3167 218° Southwest 282 325 9,900 -1,263 Descending Potomac TRACON
09:03AM 39.5333 -77.3167 180° South 276 318 8,700 -1,350 Descending Potomac TRACON
09:04AM 39.4667 -77.3333 191° South 260 299 7,200 -1,526 Descending Potomac TRACON
09:05AM 39.4167 -77.3833 218° Southwest 250 288 5,800 -1,421 Descending Potomac TRACON
09:06AM 39.3500 -77.4333 210° Southwest 245 282 4,500 -893 Descending Potomac TRACON
09:07AM 39.2833 -77.4333 180° South 246 283 4,000 -248 Descending Potomac TRACON
09:08AM 39.2167 -77.4333 180° South 244 281 4,000  Level Potomac TRACON
09:09AM 39.1500 -77.4333 180° South 232 267 4,000 -450 Level Potomac TRACON
09:10AM 39.1000 -77.4333 180° South 191 220 3,100 -939 Descending Potomac TRACON
09:11AM 39.0500 -77.4333 180° South 186 214 2,200 -887 Descending Potomac TRACON
09:12AM 39.0000 -77.4333 180° South 145 167 1,400 -737 Descending Potomac TRACON
09:13AM 38.9833 -77.4333 180° South 122 140 800 -667 Descending Potomac TRACON
09:15AM 38.9474 -77.4599 180° South  Level Estimated
09:22AM 38.9474 -77.4599 349° North  Level Estimated